Location: Kellogg
(38.0159°N, 90.0546°W)
Time: 22:15:53
(UTC+00:00)

Vanguard 2 - Pass Details

Date: 22 September 2024
Orbit: 552 x 2910 km, 32.9° (Epoch: 09 October)

Event Time Altitude Azimuth Distance (km) Brightness Sun altitude
Rises 06:03:18 0° 218° (SW) 2,918 - -51.8°
Reaches altitude 10° 06:06:29 10° 195° (SSW) 1,864 - -51.8°
Maximum altitude 06:08:56 16° 157° (SSE) 1,496 - -51.7°
Drops below altitude 10° 06:11:22 10° 119° (ESE) 1,830 - -51.6°
Sets 06:14:26 0° 95° (E) 2,833 - -51.6°
